Starlink 32143

operational
NORAD ID: 60296 Int'l Des: 2024-132 Owner: SPXS Country: US Constellation: starlink
LEOCIRCULAR

About Starlink 32143

Description loading...

Live Position

Loading 3D Globe...

Upcoming Passes

Altitude History

Altitude vs Time

uPlot chart will show altitude changes over time

Two-Line Element Set

1 60296U 24132U 25260.90945699 -.00000523 00000-0 -55321-5 0 9994
2 60296 53.1591 135.2128 0001196 91.3383 268.7755 15.30192759 65109
Epoch: Sep 17, 2025 • Age: 13 hours

Current Status

Altitude 475.8 km
Velocity 7.63 km/s
Sub-Earth Point 2.45°N, 18.7°W
Launch Date Jul 28, 2024
Age 1.1 years
Type internet

Technical Details

Classification Payload
Mass 730.00 kg
Dry Mass 700.00 kg
Total Mass 730.00 kg
Length 0.30 m
Diameter 4.10 m
Span 29.00 m
Shape Box + pan
Manufacturer SPXS
Bus Type Starlink V2M
Phase Status In Orbit
Owner/State SPXS/US

Large Constellations

Loading constellations...